Temperature
20 20 20 20 18 17 18 19 18 18 18 18 18 18 17 17 17 17 16 17 17 17 17 17 17 17 17 17 17 17 17 17 17 17 17 16 16 17 17 17 17 17 17 17 17 17 17 17 17
20 20 20 19 17 18 19 18 18 18 18 18 18 17 17 16 16 16 16 16 17 17 17 17 17 17 17 17 17 17 17 16 16 16 16 16 16 16 16 16 17 17 17 17 17 17 17 17 17
20 20 20 17 18 18 19 18 18 19 19 18 18 17 17 16 16 17 17 17 17 17 17 17 17 17 17 17 17 16 16 16 16 16 16 16 16 16 16 16 16 16 16 16 17 17 17 17 17
20 20 19 17 19 19 19 18 18 19 19 18 17 17 16 17 17 17 17 17 17 17 17 17 17 17 16 16 16 16 16 16 16 16 16 16 16 16 16 16 16 16 16 16 16 16 17 16 17
20 20 18 18 19 19 18 18 19 18 18 17 17 16 16 17 17 17 17 17 17 17 17 16 16 16 16 16 16 16 16 16 16 16 16 16 16 16 16 16 16 16 16 16 16 16 16 16 16
20 18 17 18 19 19 18 18 18 18 17 17 17 16 16 17 17 17 17 17 17 17 17 16 16 16 16 16 16 16 16 16 16 16 16 16 16 16 15 15 16 16 16 16 16 16 16 16 16
19 17 18 18 18 19 19 18 18 17 17 17 17 16 16 16 17 17 17 17 17 17 16 16 16 16 16 16 16 16 16 16 16 16 16 16 16 16 16 16 16 16 16 16 16 16 16 16 16
20 17 18 18 18 19 18 18 18 18 17 18 18 16 16 17 17 17 17 17 17 16 16 16 16 16 16 16 16 16 16 16 16 16 16 16 16 16 16 16 16 16 16 16 16 16 16 16 16
20 17 17 18 18 18 18 18 18 18 18 17 17 17 17 17 17 17 16 16 16 16 16 16 16 16 16 16 16 16 16 16 16 16 16 16 16 16 16 16 16 16 16 16 16 16 16 16 16
19 17 18 18 18 18 18 18 18 18 17 17 17 17 17 17 17 17 17 17 17 17 16 16 16 16 16 16 16 16 16 16 16 16 16 16 16 16 16 16 16 16 16 16 16 16 16 16 16
19 18 18 18 19 19 18 18 18 18 17 17 17 17 17 17 17 17 17 17 17 17 17 16 16 16 16 16 16 16 16 16 16 16 16 16 16 16 16 16 16 16 16 16 16 16 16 16 16
18 18 19 19 19 19 18 18 18 18 18 19 18 18 18 17 17 17 17 17 17 17 17 17 16 16 16 16 16 16 16 16 16 16 16 16 16 16 16 16 16 16 16 16 16 16 16 16 16
18 18 19 19 19 19 19 18 18 18 18 18 18 18 18 18 17 17 17 17 17 17 17 17 17 16 16 16 16 16 16 16 16 16 16 16 16 16 16 16 16 16 16 16 16 16 16 15 15
18 18 18 19 19 19 18 18 18 18 18 18 18 18 18 18 17 17 17 17 17 17 17 17 17 17 16 16 16 16 16 16 16 16 16 16 16 16 16 16 16 16 16 16 16 16 15 15 15
19 18 18 18 19 18 19 18 17 18 18 18 18 18 18 18 18 18 18 18 18 18 17 17 17 17 17 16 16 16 16 16 16 16 16 16 16 16 16 16 16 16 16 15 15 15 15 15 15
18 17 17 18 18 18 18 18 18 18 18 17 18 18 18 18 18 18 18 18 18 18 17 17 17 17 17 16 16 16 16 16 16 16 16 16 16 16 16 16 16 16 16 15 15 15 15 15 15
17 17 17 18 18 18 18 17 17 18 18 17 18 18 18 18 18 18 18 18 18 18 17 17 17 17 17 16 16 16 16 16 16 16 16 16 16 16 16 16 16 16 16 15 15 15 15 15 15
17 17 17 17 18 18 17 17 17 17 17 17 18 18 18 18 18 18 18 18 18 18 17 17 17 17 17 16 16 16 16 16 16 16 16 16 16 16 16 16 16 16 16 15 15 15 15 15 15
17 17 17 17 18 18 17 17 17 17 17 17 17 18 18 18 19 19 18 18 18 18 17 17 17 17 17 16 16 16 16 16 16 16 16 16 16 16 16 16 16 16 16 16 15 15 15 15 15
18 17 17 18 18 18 17 17 17 17 17 17 18 18 19 19 19 19 18 18 18 18 18 18 17 17 17 17 17 16 16 16 16 16 16 16 16 16 16 16 16 16 16 15 15 15 15 15 15
18 17 17 17 17 17 17 17 17 17 17 17 18 18 19 19 19 19 19 18 18 18 18 18 18 17 17 17 17 16 16 16 16 16 16 16 16 16 15 15 15 15 15 15 15 15 15 15 15
17 18 18 18 17 16 17 16 16 16 16 17 17 18 19 19 19 19 19 19 19 18 18 18 18 17 17 17 17 17 17 16 16 16 16 16 16 16 15 15 15 15 15 15 15 15 15 15 15
18 18 18 17 17 16 16 16 16 16 17 17 17 18 19 19 20 20 20 19 19 19 18 18 18 18 17 17 17 17 17 17 16 16 16 16 16 15 15 15 15 15 15 15 15 15 15 15 15
18 17 17 16 15 16 16 16 16 16 17 17 18 19 19 20 20 20 20 20 19 19 19 18 18 18 17 17 17 17 17 17 16 16 16 16 16 15 15 15 15 15 15 15 15 15 15 15 14
17 16 16 16 15 16 16 16 16 17 18 18 18 19 19 20 20 20 20 19 19 19 19 19 18 18 18 17 17 17 17 17 17 17 16 16 16 16 16 15 15 15 15 15 15 15 15 14 14
17 16 16 16 16 15 16 16 17 18 19 19 19 19 19 20 20 20 20 20 19 19 19 19 19 18 18 18 18 17 17 17 17 17 16 16 16 16 16 15 15 15 15 15 15 15 14 14 14
17 16 16 15 16 16 16 17 17 18 18 18 19 19 19 20 20 20 20 20 20 20 19 19 19 19 18 18 18 17 17 17 17 17 16 16 16 16 16 15 15 15 15 15 15 14 14 14 14
17 16 15 15 16 16 17 17 17 18 18 18 18 18 19 19 20 20 20 20 20 20 20 19 19 19 18 18 18 18 17 17 17 17 17 16 16 16 16 15 15 15 15 15 15 14 14 14 14
17 16 15 14 15 16 16 17 18 17 18 17 17 18 19 19 20 20 20 20 20 20 20 19 19 19 18 18 18 18 17 17 17 17 17 16 16 16 16 16 15 15 15 15 14 14 14 14 14
17 17 16 16 15 15 15 16 18 17 18 18 18 19 19 20 20 20 20 20 20 20 19 19 19 19 18 18 18 18 17 17 17 17 17 16 16 16 16 16 15 15 15 15 14 14 14 14 14
Wind_Speed
3 5 3 3 4 5 2 2 1 2 3 3 5 7 7 4 2 3 0 2 3 3 4 7 10 11 11 11 11 11 11 11 10 10 10 10 9 9 9 9 9 9 9 9 8 8 8 8 8
3 3 4 4 4 3 1 1 2 2 5 5 5 6 6 4 3 4 2 3 4 5 6 8 10 11 11 10 10 10 10 10 10 10 9 9 9 9 9 8 8 9 9 9 8 8 8 8 8
2 3 4 4 3 3 3 1 4 4 5 3 4 5 4 3 3 2 3 5 6 6 7 8 10 10 10 10 10 10 9 9 9 9 9 9 9 9 8 8 8 8 8 8 8 7 7 7 8
3 4 4 5 3 1 3 4 5 6 4 5 5 5 4 3 2 4 5 6 7 5 6 7 10 10 10 9 9 9 9 8 8 9 9 9 9 8 8 8 7 7 8 8 7 7 7 7 7
4 4 5 3 2 1 2 3 3 4 3 3 4 5 3 4 6 7 6 6 6 5 5 7 9 9 9 8 8 8 8 8 8 8 8 8 8 8 8 7 7 7 8 8 8 7 7 7 8
4 4 4 2 2 2 2 2 3 5 5 4 5 5 3 2 6 5 6 6 5 4 5 5 7 8 8 7 7 7 7 7 7 7 7 7 7 7 7 7 7 8 8 9 9 9 8 8 8
4 4 3 3 2 1 2 2 4 6 6 3 4 5 3 2 3 5 6 6 5 4 4 4 5 5 6 6 7 7 7 7 7 7 6 6 6 6 7 7 7 7 8 9 9 9 9 8 9
4 4 3 2 3 1 2 2 3 5 4 3 3 6 5 5 5 6 6 5 4 3 3 3 4 4 5 5 6 6 7 7 7 7 7 7 8 7 7 7 7 7 8 8 9 9 9 9 9
3 4 2 3 4 3 2 3 3 3 6 3 3 3 6 9 8 7 5 4 3 2 2 2 2 3 3 4 5 6 7 7 8 7 7 7 8 8 8 8 7 8 9 9 9 9 9 10 10
4 3 3 2 4 5 3 3 4 4 4 4 5 6 9 9 9 7 5 4 2 1 0 1 1 1 3 3 5 6 6 7 7 7 7 7 7 7 7 8 8 8 8 9 9 10 10 10 9
3 3 2 1 3 6 5 3 2 7 4 6 10 11 10 9 8 7 5 4 3 2 1 1 1 1 2 3 4 5 6 6 7 7 6 6 6 7 8 8 8 8 8 8 8 9 9 8 8
3 2 2 2 3 4 4 4 4 3 4 6 10 12 10 10 8 7 6 5 3 3 3 2 2 2 2 3 3 4 4 4 5 5 6 5 5 5 5 5 6 6 6 7 7 7 8 8 8
3 2 3 5 6 5 6 5 4 2 5 8 10 10 9 9 7 5 5 4 3 4 4 3 3 2 2 3 2 3 3 3 4 4 5 5 4 3 4 4 5 6 6 6 5 6 7 7 8
3 4 4 4 5 3 6 4 4 3 7 9 10 9 8 7 6 5 5 4 4 5 5 3 3 3 4 2 2 3 3 4 5 5 5 5 5 4 4 4 5 6 6 6 6 6 6 5 6
4 6 5 4 3 3 5 3 2 5 8 8 8 7 6 5 6 6 7 6 6 5 5 4 4 4 4 3 3 3 3 5 5 5 6 6 6 5 5 4 4 5 6 7 7 7 6 5 5
4 4 2 2 2 2 4 2 2 6 9 8 6 6 6 5 6 6 6 6 6 5 5 5 5 5 4 4 3 4 5 5 5 6 6 7 7 6 6 4 4 5 6 6 4 4 5 5 5
4 3 2 1 1 2 3 3 2 6 8 7 7 6 6 5 5 6 6 7 6 6 6 5 5 6 5 4 4 5 5 5 5 6 6 7 7 7 7 5 5 6 6 5 4 4 4 4 5
3 3 2 2 1 3 3 3 2 5 7 7 6 6 6 7 8 6 6 6 6 6 6 6 5 5 5 4 4 4 4 4 5 5 5 6 6 6 7 6 6 6 4 4 4 5 5 4 4
5 5 3 2 1 3 3 3 4 5 6 6 6 7 7 8 6 4 5 5 5 5 6 6 6 5 5 3 3 3 2 1 2 3 5 5 6 6 6 5 5 5 4 4 4 4 5 4 3
5 4 2 1 1 2 2 3 3 5 7 8 9 9 9 7 5 5 6 7 7 7 7 6 6 6 5 3 3 2 2 1 1 2 4 5 5 5 5 5 4 4 4 5 4 3 3 3 3
2 4 4 3 2 3 2 3 3 3 4 5 6 7 7 9 9 8 8 8 8 8 9 8 7 7 6 5 4 4 3 3 2 2 2 3 4 4 5 5 5 4 3 3 3 3 4 2 3
1 3 5 4 3 0 1 2 5 4 4 7 8 8 8 9 8 8 9 9 10 9 7 7 7 7 6 6 5 5 3 2 2 1 0 2 3 3 4 5 5 4 3 3 2 2 2 3 2
3 3 4 4 4 1 1 1 6 2 6 9 10 10 10 9 9 9 10 11 10 8 7 7 7 6 6 6 6 5 3 2 1 1 1 2 2 3 3 4 4 4 3 3 3 3 3 2 2
5 6 6 4 3 0 3 4 5 5 9 8 9 10 9 8 8 8 7 7 7 6 6 6 7 6 6 7 6 6 6 4 3 2 1 0 1 1 2 3 3 3 3 3 3 3 3 3 3
4 5 3 3 2 3 3 3 7 7 8 10 10 10 9 8 7 7 8 8 8 8 8 7 8 7 7 7 7 7 7 6 6 4 3 2 1 0 0 2 2 2 2 3 3 3 2 2 2
3 5 5 3 3 3 2 4 6 6 5 5 6 7 7 8 8 8 9 9 9 9 9 8 9 8 7 8 7 6 6 5 4 5 4 4 3 2 2 2 2 2 3 3 3 3 2 2 2
4 3 4 5 1 1 4 5 7 3 2 1 3 4 6 8 8 8 7 8 8 9 9 10 10 8 7 7 6 6 6 5 5 5 4 3 3 2 3 3 3 2 3 3 3 2 2 2 2
4 6 4 4 3 1 4 4 4 5 3 2 3 5 6 6 6 6 6 7 7 8 7 7 8 8 6 6 6 5 5 5 5 4 4 4 4 3 3 3 3 3 3 3 3 2 2 2 1
4 3 4 4 4 3 2 5 4 5 4 4 5 5 6 7 7 7 6 6 5 5 6 6 6 6 5 6 5 5 4 4 4 4 4 4 4 4 4 4 3 3 2 3 3 2 2 2 1
4 5 6 4 3 3 2 5 4 4 4 4 4 4 5 6 6 6 5 5 5 5 6 6 6 6 6 6 6 5 4 4 4 4 4 4 4 4 4 4 4 3 3 3 3 3 3 3 2
Wind_Direction
92 98 87 66 61 58 54 7 83 76 71 65 76 82 89 74 84 126 228 125 118 107 101 102 102 102 97 94 91 89 88 86 85 82 82 82 82 81 79 74 69 69 70 69 66 67 69 71 71
105 101 62 62 81 80 28 352 94 97 134 129 79 73 77 71 68 101 106 125 115 109 98 102 104 101 97 94 93 89 85 85 84 83 82 81 81 81 79 74 68 65 65 64 63 64 66 69 69
105 63 79 71 89 136 152 165 128 97 102 98 83 60 76 95 107 125 144 129 106 97 97 103 107 101 97 94 92 90 86 83 83 82 81 79 78 76 73 71 67 63 61 60 60 60 64 67 68
85 49 58 70 81 136 159 152 134 120 85 57 94 76 62 44 128 135 128 121 110 98 100 109 110 105 99 95 91 87 84 81 80 80 79 78 74 72 69 65 62 58 55 56 57 59 64 69 71
63 78 66 61 53 43 94 128 126 110 89 75 94 92 57 14 97 114 119 118 115 102 102 111 112 110 104 96 91 87 84 81 77 74 73 71 68 66 62 61 58 53 52 52 51 56 64 71 74
57 67 83 102 71 56 71 100 105 93 97 95 94 97 68 67 109 123 120 113 110 105 93 96 103 105 104 95 89 85 81 77 74 69 67 62 58 56 54 53 53 52 52 54 53 56 63 70 76
98 89 116 135 118 94 118 98 109 114 108 114 113 101 103 124 137 122 106 99 94 90 83 69 74 81 89 90 86 83 75 68 63 57 54 51 49 46 45 45 48 54 54 54 56 60 59 69 77
115 99 92 117 135 135 107 89 94 109 109 104 106 130 159 180 131 102 88 81 78 72 68 62 61 60 59 59 69 69 63 56 52 46 43 43 38 33 34 34 43 53 56 55 59 60 61 70 76
85 79 133 179 162 154 125 103 79 74 100 81 77 130 149 134 118 106 91 75 76 85 53 56 58 55 57 46 56 52 48 43 41 35 34 37 32 26 24 27 39 46 50 52 56 59 65 70 72
77 119 193 197 168 147 130 115 128 105 94 96 89 90 115 124 131 134 139 144 149 158 73 84 68 54 49 48 51 47 40 39 39 36 35 38 36 30 29 27 35 41 46 49 54 59 63 65 64
94 144 156 100 133 132 124 112 109 127 148 167 152 146 139 138 143 152 161 165 181 197 217 175 143 77 69 55 52 47 40 37 37 37 37 45 47 40 36 34 30 33 40 44 49 56 61 64 66
95 67 120 118 110 114 128 122 105 141 181 161 150 147 147 152 162 169 169 173 172 185 215 191 142 105 77 78 61 52 41 37 34 35 45 60 57 46 36 36 32 37 41 49 56 61 63 66 68
81 86 61 86 93 100 104 105 116 104 108 120 130 140 153 161 170 174 171 171 169 185 193 188 153 131 104 87 71 68 51 47 50 48 54 71 72 58 42 37 40 42 49 57 61 66 65 61 59
116 95 81 71 79 74 101 92 97 124 120 127 141 155 164 172 172 167 173 180 185 189 185 175 152 141 124 103 83 70 60 61 64 59 63 77 83 79 64 50 46 44 52 61 68 70 71 64 63
97 85 54 32 65 91 96 61 142 153 137 145 159 165 169 181 180 186 189 187 190 185 171 164 154 131 122 113 96 80 68 72 67 62 69 79 87 86 83 69 54 49 63 71 71 66 68 66 62
69 73 63 352 60 91 115 188 184 151 148 164 176 178 184 199 203 204 194 185 183 172 162 166 154 134 129 117 103 86 72 70 65 67 71 76 84 88 85 75 58 61 73 74 74 66 68 60 58
51 104 126 332 50 125 138 196 185 158 162 178 188 191 196 209 218 215 194 184 179 173 161 152 141 141 137 120 103 86 75 67 61 64 66 71 79 84 85 76 66 74 76 67 76 64 76 74 65
178 152 152 220 237 129 144 208 187 166 177 191 196 197 203 212 221 212 193 181 174 166 155 146 142 141 128 108 90 73 61 52 50 53 61 73 84 90 90 80 70 76 76 64 69 74 64 71 71
148 140 150 236 200 140 183 219 216 179 186 200 203 202 209 222 227 203 185 172 164 162 158 156 151 153 143 126 116 104 82 47 36 36 52 70 85 94 93 88 76 75 81 81 85 89 71 51 38
130 130 142 67 107 142 184 253 245 196 206 207 203 207 211 216 206 193 184 179 180 178 176 171 169 167 167 153 138 132 127 101 75 38 46 57 76 89 97 96 88 83 87 78 74 86 89 49 34
140 163 176 161 76 63 84 315 268 234 216 216 214 212 211 209 205 197 187 189 186 187 187 185 182 175 172 152 116 94 72 53 40 26 18 25 61 80 92 101 101 89 88 93 83 88 105 101 40
192 181 157 136 117 291 127 271 272 235 230 224 220 214 216 215 205 195 188 191 197 199 190 186 183 178 170 156 151 149 150 162 198 182 65 34 55 78 96 105 105 99 91 94 87 88 99 117 96
166 115 116 123 129 85 67 196 278 224 231 234 225 218 217 213 204 197 196 198 200 195 187 186 178 178 172 167 166 157 154 163 146 111 92 53 39 54 92 110 110 104 97 101 92 86 85 97 120
119 83 67 60 83 283 223 190 270 226 218 224 219 216 213 207 203 199 197 192 192 187 184 178 177 185 178 176 173 173 171 167 154 154 152 83 28 28 76 115 116 116 110 107 105 99 96 94 98
92 92 51 12 13 264 233 207 253 246 227 216 213 213 208 196 193 189 186 187 188 188 189 185 183 190 185 183 186 188 185 179 184 187 185 185 201 226 201 127 130 126 128 121 114 101 97 106 110
153 138 156 184 217 287 286 238 262 272 256 220 204 199 193 191 191 190 193 191 193 194 191 187 190 194 188 189 195 191 187 186 193 190 186 193 201 207 179 143 140 139 136 126 118 102 101 103 109
137 169 164 132 153 293 283 285 305 336 5 133 164 172 188 195 192 190 190 191 194 195 194 190 190 193 192 192 187 189 189 189 191 187 184 188 198 190 164 144 140 132 132 131 123 112 111 107 103
142 145 115 125 148 264 298 287 271 296 294 229 193 194 199 195 192 188 189 192 195 196 190 182 183 189 187 183 184 187 187 189 181 169 178 185 186 168 155 147 142 141 131 125 123 116 110 107 89
129 131 132 129 151 165 266 281 243 240 239 224 225 208 197 190 188 186 188 189 185 177 170 172 178 179 175 177 175 171 177 173 164 173 185 182 174 165 168 163 157 159 149 140 136 136 127 117 89
164 170 155 156 194 176 184 270 283 249 244 221 218 206 192 188 184 178 174 166 165 171 172 176 178 178 181 174 166 170 166 159 165 183 185 172 169 167 168 159 161 169 164 154 158 162 151 149 143
Height
1504 1507 1509 1511 1514 1522 1527 1524 1521 1521 1522 1523 1523 1524 1527 1530 1534 1539 1537 1535 1536 1537 1538 1538 1539 1540 1540 1540 1540 1541 1541 1541 1541 1541 1540 1540 1540 1540 1540 1540 1540 1540 1540 1540 1541 1541 1541 1542 1542
1506 1508 1511 1511 1519 1531 1530 1523 1522 1522 1523 1524 1524 1526 1528 1531 1533 1534 1535 1536 1537 1538 1539 1540 1540 1541 1541 1542 1542 1542 1542 1542 1542 1542 1542 1541 1541 1541 1541 1541 1541 1541 1541 1541 1541 1542 1542 1543 1543
1509 1509 1511 1514 1522 1529 1528 1523 1522 1523 1524 1524 1526 1528 1530 1533 1534 1535 1536 1537 1538 1539 1540 1541 1542 1542 1543 1543 1543 1543 1543 1543 1543 1543 1543 1543 1542 1542 1542 1542 1542 1542 1542 1542 1542 1543 1543 1544 1544
1510 1511 1513 1519 1524 1523 1521 1521 1521 1523 1524 1525 1527 1530 1532 1535 1535 1536 1537 1539 1540 1541 1542 1543 1543 1544 1544 1545 1545 1545 1545 1545 1545 1544 1544 1544 1544 1544 1543 1543 1543 1543 1543 1543 1543 1544 1544 1545 1545
1510 1511 1518 1524 1523 1522 1521 1521 1522 1523 1525 1527 1528 1531 1534 1536 1537 1538 1539 1541 1542 1543 1544 1544 1545 1546 1546 1546 1546 1546 1546 1546 1546 1546 1546 1546 1545 1545 1545 1545 1545 1545 1545 1545 1544 1545 1545 1546 1546
1511 1512 1525 1529 1525 1522 1522 1522 1523 1524 1526 1528 1530 1532 1536 1538 1539 1540 1541 1543 1544 1544 1545 1546 1547 1547 1548 1548 1548 1548 1548 1548 1548 1548 1547 1547 1547 1547 1547 1546 1546 1546 1546 1546 1546 1546 1546 1547 1547
1512 1517 1524 1526 1526 1524 1523 1523 1524 1525 1527 1529 1530 1533 1537 1539 1541 1542 1543 1544 1546 1546 1547 1548 1548 1549 1549 1550 1550 1550 1550 1550 1549 1549 1549 1549 1549 1548 1548 1548 1548 1548 1548 1548 1548 1547 1548 1548 1549
1512 1517 1524 1526 1526 1525 1524 1524 1525 1526 1528 1531 1532 1534 1537 1540 1542 1543 1545 1546 1547 1548 1549 1549 1550 1550 1551 1551 1552 1552 1552 1552 1551 1551 1551 1551 1550 1550 1550 1550 1549 1549 1549 1549 1549 1549 1549 1549 1550
1513 1521 1528 1525 1525 1524 1524 1525 1527 1528 1529 1531 1532 1534 1537 1540 1542 1544 1546 1547 1549 1550 1551 1551 1552 1552 1553 1553 1553 1554 1554 1553 1553 1553 1553 1553 1552 1552 1552 1551 1551 1551 1551 1551 1551 1551 1551 1551 1551
1514 1524 1523 1520 1521 1522 1524 1525 1527 1529 1530 1532 1533 1536 1538 1541 1543 1545 1547 1548 1550 1551 1553 1553 1554 1554 1555 1555 1555 1555 1555 1555 1555 1555 1555 1554 1554 1554 1553 1553 1553 1553 1552 1552 1552 1552 1553 1553 1553
1515 1520 1519 1519 1520 1521 1524 1526 1527 1529 1532 1532 1533 1536 1539 1542 1544 1546 1548 1550 1551 1553 1554 1555 1555 1556 1556 1557 1557 1557 1557 1557 1557 1557 1556 1556 1556 1555 1555 1555 1554 1554 1554 1554 1554 1554 1554 1555 1555
1517 1519 1519 1520 1521 1522 1524 1526 1528 1529 1531 1532 1534 1536 1539 1542 1545 1547 1549 1551 1553 1554 1555 1556 1557 1557 1558 1558 1558 1558 1558 1558 1558 1558 1558 1557 1557 1557 1556 1556 1556 1556 1556 1556 1556 1556 1556 1556 1557
1518 1520 1520 1521 1522 1524 1525 1527 1529 1530 1532 1534 1536 1538 1541 1543 1546 1548 1550 1552 1553 1555 1556 1557 1558 1558 1559 1559 1559 1559 1559 1559 1559 1559 1559 1559 1558 1558 1558 1558 1557 1557 1557 1557 1557 1557 1558 1558 1558
1519 1520 1522 1523 1523 1525 1527 1529 1530 1532 1534 1535 1537 1540 1542 1544 1547 1549 1551 1552 1554 1555 1556 1557 1558 1559 1560 1560 1560 1560 1560 1560 1560 1560 1560 1560 1560 1559 1559 1559 1559 1559 1558 1558 1559 1559 1559 1559 1560
1520 1522 1525 1525 1525 1527 1529 1533 1532 1533 1535 1537 1539 1541 1543 1546 1548 1549 1551 1553 1554 1556 1557 1558 1559 1560 1560 1561 1561 1561 1561 1561 1561 1561 1561 1561 1561 1561 1560 1560 1560 1560 1560 1560 1560 1560 1560 1561 1561
1522 1527 1532 1529 1527 1528 1533 1538 1533 1534 1535 1538 1539 1541 1543 1546 1548 1550 1551 1553 1554 1556 1557 1559 1560 1560 1561 1561 1562 1562 1562 1562 1562 1562 1562 1562 1562 1561 1561 1561 1561 1561 1561 1561 1561 1561 1561 1562 1562
1529 1535 1535 1532 1528 1529 1532 1536 1533 1534 1536 1538 1539 1541 1543 1545 1547 1549 1551 1553 1555 1556 1557 1559 1560 1561 1562 1562 1563 1563 1563 1563 1563 1563 1563 1563 1563 1563 1562 1562 1562 1562 1562 1562 1562 1562 1563 1563 1563
1535 1535 1535 1534 1530 1530 1533 1534 1533 1534 1536 1537 1539 1541 1543 1544 1546 1548 1551 1553 1555 1556 1558 1559 1560 1561 1562 1563 1563 1564 1564 1564 1564 1564 1564 1564 1564 1564 1564 1564 1563 1563 1563 1563 1563 1563 1564 1564 1564
1527 1531 1534 1533 1529 1531 1534 1534 1533 1534 1536 1537 1538 1540 1541 1543 1545 1548 1550 1552 1554 1556 1557 1559 1560 1561 1562 1563 1563 1564 1564 1565 1565 1565 1565 1565 1565 1565 1565 1565 1565 1565 1565 1564 1564 1564 1565 1565 1565
1527 1532 1534 1532 1529 1532 1535 1535 1533 1533 1534 1534 1536 1537 1539 1541 1544 1546 1548 1551 1553 1555 1557 1559 1560 1561 1562 1563 1564 1564 1565 1565 1566 1566 1566 1566 1566 1566 1566 1566 1566 1566 1566 1566 1565 1566 1565 1566 1566
1528 1532 1533 1534 1533 1533 1536 1539 1534 1532 1532 1533 1534 1535 1537 1539 1541 1544 1546 1549 1552 1554 1556 1558 1559 1561 1562 1563 1564 1565 1565 1566 1566 1567 1567 1567 1566 1566 1567 1566 1566 1566 1567 1567 1566 1566 1566 1566 1567
1531 1526 1528 1532 1538 1544 1540 1550 1537 1532 1531 1531 1531 1533 1534 1536 1539 1541 1544 1547 1549 1552 1554 1557 1559 1560 1562 1563 1564 1565 1565 1566 1566 1567 1567 1567 1567 1567 1567 1567 1567 1567 1567 1567 1567 1567 1567 1567 1567
1527 1525 1528 1532 1538 1544 1543 1549 1541 1532 1532 1528 1527 1528 1530 1533 1536 1538 1541 1544 1547 1550 1553 1555 1558 1560 1561 1562 1564 1565 1565 1566 1567 1567 1567 1567 1567 1567 1567 1567 1567 1567 1567 1567 1567 1567 1567 1567 1567
1524 1529 1533 1538 1542 1551 1544 1548 1544 1532 1525 1522 1522 1524 1527 1530 1533 1536 1539 1542 1545 1548 1551 1554 1556 1558 1560 1561 1563 1564 1565 1566 1566 1566 1567 1567 1567 1567 1567 1567 1567 1567 1567 1567 1567 1567 1567 1567 1567
1527 1538 1551 1552 1556 1553 1541 1543 1537 1520 1516 1516 1518 1520 1523 1527 1530 1533 1536 1540 1543 1546 1549 1552 1554 1556 1558 1560 1562 1563 1564 1565 1565 1566 1566 1566 1567 1567 1567 1567 1567 1567 1567 1567 1567 1567 1567 1567 1567
1529 1535 1550 1558 1559 1553 1542 1543 1528 1514 1512 1512 1514 1517 1520 1524 1527 1531 1534 1537 1540 1543 1546 1549 1552 1554 1556 1558 1560 1562 1563 1564 1564 1565 1565 1566 1566 1566 1566 1566 1566 1567 1567 1567 1567 1567 1567 1566 1566
1530 1534 1535 1546 1549 1553 1546 1535 1522 1512 1512 1512 1514 1516 1518 1521 1524 1528 1532 1535 1538 1541 1544 1547 1549 1552 1554 1556 1558 1560 1561 1562 1563 1564 1564 1565 1565 1565 1566 1566 1566 1566 1566 1566 1566 1566 1566 1566 1566
1524 1530 1539 1546 1554 1557 1546 1539 1533 1518 1515 1513 1513 1514 1516 1519 1522 1526 1530 1533 1536 1539 1542 1545 1547 1550 1552 1554 1556 1558 1559 1561 1562 1562 1563 1563 1564 1565 1565 1565 1565 1566 1566 1566 1566 1566 1566 1565 1565
1528 1531 1535 1543 1545 1554 1553 1542 1518 1516 1513 1513 1512 1513 1515 1518 1520 1524 1527 1531 1534 1537 1540 1542 1545 1548 1550 1552 1554 1556 1557 1559 1560 1561 1561 1562 1563 1563 1564 1564 1564 1565 1565 1565 1565 1565 1565 1565 1564
1520 1525 1531 1541 1545 1546 1549 1541 1512 1512 1511 1511 1512 1512 1514 1516 1519 1522 1526 1529 1532 1535 1538 1540 1543 1545 1548 1550 1552 1554 1555 1557 1558 1559 1560 1561 1561 1562 1562 1562 1563 1563 1564 1564 1564 1564 1564 1564 1563